Regional Weather Roundup
Issued by NWS

Home | Current Version | Previous Version | Text Only | Print | Product List | Glossary Off
Versions: 1 2 3 4 5 6 7 8 9 10 11 12 13 14 15 16 17 18 19 20 21 22 23 24 25 26 27 28 29 30 31 32 33 34 35 36 37 38 39 40 41 42 43 44 45 46 47 48 49 50

000
ASUS43 KFSD 031410
RWRSD

WEATHER ROUNDUP FOR SOUTH DAKOTA
NATIONAL WEATHER SERVICE SIOUX FALLS SD
800 AM CST SAT DEC 03 2016

NOTE: "FAIR" INDICATES FEW OR NO CLOUDS BELOW 12,000 FEET WITH NO
SIGNIFICANT WEATHER AND/OR OBSTRUCTIONS TO VISIBILITY.


SDZ001>005-009-010-012>017-031500-
NORTHWEST AND NORTH CENTRAL SOUTH DAKOTA

CITY           SKY/WX    TMP DP  RH WIND       PRES   REMARKS
BUFFALO          N/A     18  15  88 S8        29.81F WCI   8
FAITH            N/A     18  16  92 SE15      29.92F WCI   4
MOBRIDGE         N/A     25  21  85 SE13      29.99F WCI  14
$$

SDZ012>016-024>037-041>051-057-063-072>074-031500-
SOUTHWEST AND SOUTH CENTRAL SOUTH DAKOTA

CITY           SKY/WX    TMP DP  RH WIND       PRES   REMARKS
RAPID CTY ARPT CLEAR     16  13  88 CALM      29.90F
PIERRE         CLOUDY    25  22  88 SE13      30.04F WCI  14
CUSTER         CLEAR     19  11  70 W9        29.83F WCI   8
ELLSWORTH AFB  CLEAR     21  18  87 NW1       29.88F
PHILIP         CLEAR     28  24  85 E5        29.97F WCI  23
PINE RIDGE     CLEAR     25  20  81 S9        29.96F WCI  15
SPEARFISH      FAIR      28  12  50 SW17G23   29.87F WCI  16
WINNER         CLOUDY    34  27  75 S14       30.08F WCI  25
$$

SDZ004>011-016>023-039-040-031500-
NORTHEAST SOUTH DAKOTA

CITY           SKY/WX    TMP DP  RH WIND       PRES   REMARKS
ABERDEEN       CLEAR     23  20  88 SE8       30.14F WCI  14
WATERTOWN      CLEAR     23  21  92 SE8       30.16F WCI  14
BROOKINGS      CLEAR     23  21  92 SE8       30.18F WCI  14
SISSETON         N/A     25  19  78 S9        30.20F WCI  15
$$

SDZ017-020-022-023-036>040-048>070-031500-
SOUTHEAST SOUTH DAKOTA

CITY           SKY/WX    TMP DP  RH WIND       PRES   REMARKS
SIOUX FALLS    PTCLDY    27  26  96 SE6       30.21F WCI  20
HURON          MOCLDY    25  24  96 SE10      30.15F WCI  15
CHAMBERLAIN    CLOUDY    28  28 100 CALM      30.10F
MITCHELL       CLOUDY    26  25  96 S9        30.17F WCI  17
YANKTON        MOCLDY    25  21  86 E6        30.20F WCI  18
$$

ABBREVIATIONS USED IN REMARKS
   TC - TEMPERATURE IN CELSIUS
  WCI - WIND CHILL INDEX
   HX - HEAT INDEX
  VSB - VISIBILITY





USA.gov is the U.S. government's official web portal to all federal, state and local government web resources and services.